This is the latest recevied weather packets stored in our database for station/object DG0CDC-13. If no packets are shown the sender has not sent any weather packets the latest 10 day(s).
| Time | Temp. | Humidity | Pressure | Rain* | Wind** | Luminosity | Snow |
|---|---|---|---|---|---|---|---|
| 1788534933 | 20° C | 84% | 1007.4 hPa | 0 mm | - | - | - |
| 1788534669 | 20° C | 84% | 1007.3 hPa | 0 mm | - | - | - |
| 1788534392 | 20° C | 84% | 1007.1 hPa | 0 mm | - | - | - |
| 1788534108 | 20° C | 83% | 1006.8 hPa | 0 mm | - | - | - |
| 1788533833 | 20° C | 83% | 1006.9 hPa | 0 mm | - | - | - |
| 1788533548 | 20° C | 83% | 1007 hPa | 0 mm | - | - | - |
| 1788533294 | 20° C | 83% | 1007 hPa | 0 mm | - | - | - |
| 1788533043 | 20° C | 83% | 1007 hPa | 0 mm | - | - | - |
| 1788532802 | 20° C | 82% | 1006.7 hPa | 0 mm | - | - | - |
| 1788532504 | 20° C | 82% | 1006.7 hPa | 0 mm | - | - | - |
| 1788532228 | 20° C | 82% | 1006.5 hPa | 0 mm | - | - | - |
| 1788531973 | 20° C | 82% | 1006.8 hPa | 0 mm | - | - | - |
| 1788531678 | 20° C | 82% | 1006.8 hPa | 0 mm | - | - | - |
| 1788531426 | 20° C | 82% | 1006.6 hPa | 0 mm | - | - | - |
| 1788531129 | 20° C | 81% | 1006.6 hPa | 0 mm | - | - | - |
| 1788530854 | 20.56° C | 82% | 1006.5 hPa | 0 mm | - | - | - |
| 1788530563 | 20.56° C | 82% | 1006.4 hPa | 0 mm | - | - | - |
| 1788530318 | 20.56° C | 82% | 1006.4 hPa | 0 mm | - | - | - |
| 1788530019 | 20.56° C | 81% | 1006.4 hPa | 0 mm | - | - | - |
| 1788529744 | 21.11° C | 80% | 1006.2 hPa | 0 mm | - | - | - |
| 1788529484 | 21.11° C | 79% | 1006.2 hPa | 0 mm | - | - | - |
| 1788529199 | 21.11° C | 76% | 1006.4 hPa | 0 mm | - | - | - |
| 1788528923 | 22.22° C | 74% | 1006.3 hPa | 0 mm | - | - | - |
| 1788528628 | 23.33° C | 70% | 1006.1 hPa | 0 mm | - | - | - |
| 1788528339 | 25° C | 64% | 1005 hPa | 0 mm | - | - | - |
* Rain latest hour (hover to see other rain measurements)
** Current wind speed in m/s (hover to see current wind gust speed)